Time,TemperatureF,DewpointF,PressureIn,WindDirection,WindDirectionDegrees,WindSpeedMPH,WindSpeedGustMPH,Humidity,HourlyPrecipIn,Conditions,Clouds,dailyrainin,SolarRadiationWatts/m^2,SoftwareType,DateUTC
2013-01-22 00:07:00,51.2,36.0,29.83,NW,306,14.0,-999.0,56,-99.99,,,0.00,0,weatherlink.com 1.10,2013-01-21 23:07:00,
2013-01-22 00:21:00,51.3,34.0,29.83,NW,313,5.0,-999.0,51,-99.99,,,0.00,0,weatherlink.com 1.10,2013-01-21 23:21:00,
2013-01-22 00:37:00,51.3,35.0,29.84,NW,323,9.0,-999.0,54,-99.99,,,0.00,0,weatherlink.com 1.10,2013-01-21 23:37:00,
2013-01-22 00:52:00,50.9,35.0,29.83,North,350,12.0,-999.0,55,-99.99,,,0.00,0,weatherlink.com 1.10,2013-01-21 23:52:00,
2013-01-22 01:07:00,50.8,36.0,29.83,NNW,340,5.0,-999.0,57,-99.99,,,0.00,0,weatherlink.com 1.10,2013-01-22 00:07:00,
2013-01-22 01:22:00,50.7,37.0,29.83,WNW,282,12.0,-999.0,60,-99.99,,,0.00,0,weatherlink.com 1.10,2013-01-22 00:22:00,
2013-01-22 01:38:00,50.5,37.0,29.83,NW,317,4.0,-999.0,60,-99.99,,,0.00,0,weatherlink.com 1.10,2013-01-22 00:38:00,
2013-01-22 01:53:00,50.5,35.0,29.83,NW,309,10.0,-999.0,55,-99.99,,,0.00,0,weatherlink.com 1.10,2013-01-22 00:53:00,
2013-01-22 02:08:00,50.4,35.0,29.83,NW,317,6.0,-999.0,57,-99.99,,,0.00,0,weatherlink.com 1.10,2013-01-22 01:08:00,
2013-01-22 02:23:00,50.0,36.0,29.83,NW,305,6.0,-999.0,59,-99.99,,,0.00,0,weatherlink.com 1.10,2013-01-22 01:23:00,
2013-01-22 02:38:00,50.2,36.0,29.83,NW,323,3.0,-999.0,58,-99.99,,,0.00,0,weatherlink.com 1.10,2013-01-22 01:38:00,
2013-01-22 02:54:00,50.1,36.0,29.83,NW,313,5.0,-999.0,59,-99.99,,,0.00,0,weatherlink.com 1.10,2013-01-22 01:54:00,
2013-01-22 03:08:00,49.9,35.0,29.83,WNW,288,6.0,-999.0,58,-99.99,,,0.00,0,weatherlink.com 1.10,2013-01-22 02:08:00,
2013-01-22 03:24:00,49.8,35.0,29.83,WNW,303,5.0,-999.0,58,-99.99,,,0.00,0,weatherlink.com 1.10,2013-01-22 02:24:00,
2013-01-22 03:39:00,49.8,34.0,29.83,NW,317,5.0,-999.0,56,-99.99,,,0.00,0,weatherlink.com 1.10,2013-01-22 02:39:00,
2013-01-22 03:55:00,49.8,35.0,29.82,NNW,329,11.0,-999.0,57,-99.99,,,0.00,0,weatherlink.com 1.10,2013-01-22 02:55:00,
2013-01-22 04:09:00,49.6,35.0,29.82,WNW,301,7.0,-999.0,58,-99.99,,,0.00,0,weatherlink.com 1.10,2013-01-22 03:09:00,
2013-01-22 04:25:00,49.4,35.0,29.81,NW,324,3.0,-999.0,58,-99.99,,,0.00,0,weatherlink.com 1.10,2013-01-22 03:25:00,
2013-01-22 04:39:00,49.3,35.0,29.82,NW,316,5.0,-999.0,58,-99.99,,,0.00,0,weatherlink.com 1.10,2013-01-22 03:39:00,
2013-01-22 04:55:00,49.0,35.0,29.81,WNW,299,3.0,-999.0,59,-99.99,,,0.00,0,weatherlink.com 1.10,2013-01-22 03:55:00,
2013-01-22 05:10:00,48.7,35.0,29.82,NW,321,1.0,-999.0,60,-99.99,,,0.00,0,weatherlink.com 1.10,2013-01-22 04:10:00,
2013-01-22 05:26:00,48.5,35.0,29.82,WNW,291,3.0,-999.0,60,-99.99,,,0.00,0,weatherlink.com 1.10,2013-01-22 04:26:00,
2013-01-22 05:40:00,48.3,34.0,29.82,WNW,284,6.0,-999.0,59,-99.99,,,0.00,0,weatherlink.com 1.10,2013-01-22 04:40:00,
2013-01-22 05:56:00,48.6,35.0,29.82,West,274,5.0,-999.0,60,-99.99,,,0.00,0,weatherlink.com 1.10,2013-01-22 04:56:00,
2013-01-22 06:11:00,48.2,35.0,29.82,WNW,286,5.0,-999.0,61,-99.99,,,0.00,0,weatherlink.com 1.10,2013-01-22 05:11:00,
2013-01-22 06:26:00,48.1,35.0,29.82,WNW,286,6.0,-999.0,61,-99.99,,,0.00,0,weatherlink.com 1.10,2013-01-22 05:26:00,
2013-01-22 06:42:00,48.2,35.0,29.82,West,279,3.0,-999.0,61,-99.99,,,0.00,0,weatherlink.com 1.10,2013-01-22 05:42:00,
2013-01-22 06:56:00,48.3,36.0,29.82,West,267,9.0,-999.0,62,-99.99,,,0.00,0,weatherlink.com 1.10,2013-01-22 05:56:00,
2013-01-22 07:12:00,48.5,36.0,29.82,WNW,293,3.0,-999.0,63,-99.99,,,0.00,0,weatherlink.com 1.10,2013-01-22 06:12:00,
2013-01-22 07:27:00,48.4,36.0,29.82,WNW,292,4.0,-999.0,63,-99.99,,,0.00,0,weatherlink.com 1.10,2013-01-22 06:27:00,
2013-01-22 07:42:00,48.3,36.0,29.82,WNW,296,3.0,-999.0,63,-99.99,,,0.00,0,weatherlink.com 1.10,2013-01-22 06:42:00,
2013-01-22 07:58:00,47.9,37.0,29.82,WNW,297,4.0,-999.0,65,-99.99,,,0.00,0,weatherlink.com 1.10,2013-01-22 06:58:00,
2013-01-22 08:12:00,47.8,36.0,29.82,WNW,297,2.0,-999.0,65,-99.99,,,0.00,7,weatherlink.com 1.10,2013-01-22 07:12:00,
2013-01-22 08:27:00,48.1,37.0,29.82,WNW,297,0.0,-999.0,65,-99.99,,,0.00,9,weatherlink.com 1.10,2013-01-22 07:27:00,
2013-01-22 08:43:00,48.7,37.0,29.82,WSW,243,7.0,-999.0,64,-99.99,,,0.00,14,weatherlink.com 1.10,2013-01-22 07:43:00,
2013-01-22 08:58:00,49.4,37.0,29.82,WSW,240,5.0,-999.0,63,-99.99,,,0.00,18,weatherlink.com 1.10,2013-01-22 07:58:00,
2013-01-22 09:13:00,50.4,39.0,29.81,SW,219,12.0,-999.0,66,-99.99,,,0.00,54,weatherlink.com 1.10,2013-01-22 08:13:00,
2013-01-22 09:28:00,50.6,37.0,29.82,SW,221,3.0,-999.0,60,-99.99,,,0.00,209,weatherlink.com 1.10,2013-01-22 08:28:00,
2013-01-22 09:44:00,51.5,38.0,29.82,West,269,14.0,-999.0,61,-99.99,,,0.00,111,weatherlink.com 1.10,2013-01-22 08:44:00,
2013-01-22 09:58:00,51.3,38.0,29.82,West,273,8.0,-999.0,60,-99.99,,,0.00,290,weatherlink.com 1.10,2013-01-22 08:58:00,
2013-01-22 10:14:00,51.8,39.0,29.82,West,259,13.0,-999.0,62,-99.99,,,0.00,313,weatherlink.com 1.10,2013-01-22 09:14:00,
2013-01-22 10:29:00,52.4,39.0,29.82,SW,223,14.0,-999.0,60,-99.99,,,0.00,483,weatherlink.com 1.10,2013-01-22 09:29:00,
2013-01-22 10:45:00,52.3,39.0,29.82,WNW,288,15.0,-999.0,60,-99.99,,,0.00,336,weatherlink.com 1.10,2013-01-22 09:45:00,
2013-01-22 10:59:00,52.6,38.0,29.83,WSW,251,15.0,-999.0,59,-99.99,,,0.00,427,weatherlink.com 1.10,2013-01-22 09:59:00,
2013-01-22 11:15:00,52.5,38.0,29.83,WNW,288,18.0,-999.0,58,-99.99,,,0.00,485,weatherlink.com 1.10,2013-01-22 10:15:00,
2013-01-22 11:30:00,53.1,38.0,29.83,West,273,13.0,-999.0,56,-99.99,,,0.00,522,weatherlink.com 1.10,2013-01-22 10:30:00,
2013-01-22 11:46:00,52.6,38.0,29.82,West,268,11.0,-999.0,57,-99.99,,,0.00,91,weatherlink.com 1.10,2013-01-22 10:46:00,
2013-01-22 12:00:00,52.6,38.0,29.82,WSW,258,11.0,-999.0,58,-99.99,,,0.00,520,weatherlink.com 1.10,2013-01-22 11:00:00,
2013-01-22 12:31:00,53.1,40.0,29.80,WSW,253,12.0,-999.0,61,-99.99,,,0.00,679,weatherlink.com 1.10,2013-01-22 11:31:00,
2013-01-22 13:01:00,52.9,40.0,29.79,WSW,253,21.0,-999.0,62,-99.99,,,0.00,568,weatherlink.com 1.10,2013-01-22 12:01:00,
2013-01-22 13:32:00,53.1,40.0,29.77,West,271,14.0,-999.0,61,-99.99,,,0.00,587,weatherlink.com 1.10,2013-01-22 12:32:00,
2013-01-22 13:48:00,53.6,38.0,29.76,WNW,285,16.0,-999.0,57,-99.99,,,0.00,541,weatherlink.com 1.10,2013-01-22 12:48:00,
2013-01-22 14:02:00,53.6,39.0,29.76,West,261,12.0,-999.0,58,-99.99,,,0.00,185,weatherlink.com 1.10,2013-01-22 13:02:00,
2013-01-22 14:17:00,53.5,40.0,29.75,SW,215,9.0,-999.0,61,-99.99,,,0.00,673,weatherlink.com 1.10,2013-01-22 13:17:00,
2013-01-22 14:33:00,53.5,40.0,29.74,SW,221,12.0,-999.0,61,-99.99,,,0.00,223,weatherlink.com 1.10,2013-01-22 13:33:00,
2013-01-22 14:47:00,54.0,41.0,29.74,West,274,12.0,-999.0,61,-99.99,,,0.00,606,weatherlink.com 1.10,2013-01-22 13:47:00,
2013-01-22 15:03:00,54.0,40.0,29.74,West,276,17.0,-999.0,59,-99.99,,,0.00,418,weatherlink.com 1.10,2013-01-22 14:03:00,
2013-01-22 15:18:00,54.1,39.0,29.73,WSW,257,13.0,-999.0,57,-99.99,,,0.00,390,weatherlink.com 1.10,2013-01-22 14:18:00,
2013-01-22 15:33:00,54.1,40.0,29.73,WSW,243,14.0,-999.0,59,-99.99,,,0.00,353,weatherlink.com 1.10,2013-01-22 14:33:00,
2013-01-22 15:48:00,54.3,40.0,29.72,West,271,13.0,-999.0,60,-99.99,,,0.00,323,weatherlink.com 1.10,2013-01-22 14:48:00,
2013-01-22 16:04:00,54.3,40.0,29.72,WSW,250,12.0,-999.0,59,-99.99,,,0.00,278,weatherlink.com 1.10,2013-01-22 15:04:00,
2013-01-22 16:19:00,53.9,40.0,29.72,West,270,9.0,-999.0,60,-99.99,,,0.00,244,weatherlink.com 1.10,2013-01-22 15:19:00,
2013-01-22 16:35:00,53.7,41.0,29.71,WNW,288,14.0,-999.0,62,-99.99,,,0.00,186,weatherlink.com 1.10,2013-01-22 15:35:00,
2013-01-22 16:49:00,53.5,41.0,29.70,West,265,11.0,-999.0,62,-99.99,,,0.00,54,weatherlink.com 1.10,2013-01-22 15:49:00,
2013-01-22 17:04:00,53.0,41.0,29.70,WSW,245,8.0,-999.0,65,-99.99,,,0.00,21,weatherlink.com 1.10,2013-01-22 16:04:00,
2013-01-22 17:20:00,52.8,42.0,29.69,WSW,252,14.0,-999.0,67,-99.99,,,0.00,21,weatherlink.com 1.10,2013-01-22 16:20:00,
2013-01-22 17:35:00,52.7,42.0,29.68,WSW,238,8.0,-999.0,68,-99.99,,,0.00,9,weatherlink.com 1.10,2013-01-22 16:35:00,
2013-01-22 17:50:00,52.9,43.0,29.67,SW,228,5.0,-999.0,70,-99.99,,,0.00,0,weatherlink.com 1.10,2013-01-22 16:50:00,
2013-01-22 18:05:00,52.9,44.0,29.67,WNW,292,5.0,-999.0,71,-99.99,,,0.00,0,weatherlink.com 1.10,2013-01-22 17:05:00,
2013-01-22 18:21:00,53.2,45.0,29.67,West,265,5.0,-999.0,74,-99.99,,,0.00,0,weatherlink.com 1.10,2013-01-22 17:21:00,
2013-01-22 18:36:00,53.4,46.0,29.66,SSW,193,12.0,-999.0,75,-99.99,,,0.00,0,weatherlink.com 1.10,2013-01-22 17:36:00,
2013-01-22 18:51:00,53.3,45.0,29.65,South,180,10.0,-999.0,73,-99.99,,,0.00,0,weatherlink.com 1.10,2013-01-22 17:51:00,
2013-01-22 19:06:00,53.2,45.0,29.64,South,179,12.0,-999.0,73,-99.99,,,0.00,0,weatherlink.com 1.10,2013-01-22 18:06:00,
2013-01-22 19:36:00,53.4,47.0,29.64,SSW,200,17.0,-999.0,78,-99.99,,,0.00,0,weatherlink.com 1.10,2013-01-22 18:36:00,
2013-01-22 19:52:00,53.2,47.0,29.62,SW,229,9.0,-999.0,78,-99.99,,,0.00,0,weatherlink.com 1.10,2013-01-22 18:52:00,
2013-01-22 20:07:00,53.0,46.0,29.61,West,269,7.0,-999.0,76,-99.99,,,0.00,0,weatherlink.com 1.10,2013-01-22 19:07:00,
2013-01-22 20:22:00,51.1,43.0,29.62,West,273,21.0,-999.0,74,-99.99,,,0.01,0,weatherlink.com 1.10,2013-01-22 19:22:00,
2013-01-22 20:38:00,47.5,43.0,29.61,West,270,24.0,-999.0,84,-99.99,,,0.06,0,weatherlink.com 1.10,2013-01-22 19:38:00,
2013-01-22 20:52:00,47.5,43.0,29.59,WSW,250,13.0,-999.0,84,-99.99,,,0.06,0,weatherlink.com 1.10,2013-01-22 19:52:00,
2013-01-22 21:08:00,47.4,43.0,29.59,SW,235,12.0,-999.0,84,-99.99,,,0.06,0,weatherlink.com 1.10,2013-01-22 20:08:00,
2013-01-22 21:23:00,46.7,43.0,29.57,West,269,2.0,-999.0,85,-99.99,,,0.07,0,weatherlink.com 1.10,2013-01-22 20:23:00,
2013-01-22 21:38:00,47.0,42.0,29.55,WSW,242,11.0,-999.0,84,-99.99,,,0.07,0,weatherlink.com 1.10,2013-01-22 20:38:00,
2013-01-22 21:53:00,48.6,43.0,29.56,West,260,12.0,-999.0,82,-99.99,,,0.07,0,weatherlink.com 1.10,2013-01-22 20:53:00,
2013-01-22 22:09:00,48.9,42.0,29.55,SW,235,26.0,-999.0,78,-99.99,,,0.07,0,weatherlink.com 1.10,2013-01-22 21:09:00,
2013-01-22 22:23:00,49.3,41.0,29.55,WSW,256,17.0,-999.0,73,-99.99,,,0.07,0,weatherlink.com 1.10,2013-01-22 21:23:00,
2013-01-22 22:39:00,49.3,41.0,29.55,WSW,246,19.0,-999.0,72,-99.99,,,0.07,0,weatherlink.com 1.10,2013-01-22 21:39:00,
2013-01-22 22:54:00,49.0,40.0,29.55,WSW,243,18.0,-999.0,71,-99.99,,,0.08,0,weatherlink.com 1.10,2013-01-22 21:54:00,
2013-01-22 23:09:00,48.4,39.0,29.53,SW,233,30.0,-999.0,71,-99.99,,,0.09,0,weatherlink.com 1.10,2013-01-22 22:09:00,
2013-01-22 23:25:00,47.5,41.0,29.54,WSW,246,31.0,-999.0,78,-99.99,,,0.09,0,weatherlink.com 1.10,2013-01-22 22:25:00,
2013-01-22 23:39:00,46.3,42.0,29.52,West,267,18.0,-999.0,84,-99.99,,,0.09,0,weatherlink.com 1.10,2013-01-22 22:39:00,
2013-01-22 23:55:00,44.9,41.0,29.52,West,273,21.0,-999.0,85,-99.99,,,0.09,0,weatherlink.com 1.10,2013-01-22 22:55:00,